User: anonymous   Login
Location: ????? ????
(37.9717°N, 23.4051°E)
Time: 13:30:59
(UTC+00:00)
Language:

Atlas Centaur 2 - Orbit

View from above orbital plane
View from above orbital plane
View from above satellite
View from above satellite

Ground track
Ground track

The orbit data is extracted from the following two-line orbital elements,

1 00694U 63047A   24167.89108080  .00002951  00000-0  35966-3 0  9992
2 00694  30.3580 116.1042 0565786 288.5565  65.4401 14.07577309 42370
Epoch (UTC): 15 June 2024 21:23:09
Eccentricity: 0.0565786
inclination: 30.3580°
perigee height: 458 km
apogee height: 1277 km
right ascension of ascending node: 116.1042°
argument of perigee: 288.5565°
revolutions per day: 14.07577309
mean anomaly at epoch: 65.4401°
orbit number at epoch: 4237

The dashed part of the orbit path shows where the satellite is in the earth's shadow,  

DLR